Morris, MN

10:53 AM CDT on July 24, 2017 (GMT -0500)
Morris Municipal

Weather History for KMOX - March, 2014

Change the Weather History Date:

Sunday, March 9, 2014

  Actual Average Record
Temperature  
Mean Temperature 36 °F -  
Max Temperature 53 °F 27 °F 55 °F (2015)
Min Temperature 19 °F 11 °F -7 °F (2003)
Degree Days  
Heating Degree Days 29    
Moisture  
Dew Point 30 °F    
Average Humidity 76    
Maximum Humidity 87    
Minimum Humidity 54    
Precipitation  
Precipitation 0.00 in - - ()
Sea Level Pressure  
Sea Level Pressure 29.72 in    
Wind  
Wind Speed 10 mph (SSW)    
Max Wind Speed 14 mph    
Max Gust Speed 17 mph    
Visibility 10 miles    
Events      
Averages and records for this station are not official NWS values.
T = Trace of Precipitation, MM = Missing Value Source: NWS Daily Summary

Daily Weather History Graph

Daily Weather History Graph

Search for Another Location

Airport or City:

Trip Planner

Search our weather history database for the weather conditions in past years. The results will help you decide how hot, cold, wet, or windy it might be!

Date:

Astronomy

Mar. 09, 2014 Rise Set
Actual Time 7:47 AM CDT 7:21 PM CDT
Civil Twilight 7:18 AM CDT 7:51 PM CDT
Nautical Twilight 6:43 AM CDT 8:25 PM CDT
Astronomical Twilight 6:09 AM CDT 9:00 PM CDT
Moon 1:02 PM CDT (3/9) 3:26 AM CDT (3/9)
Length of Visible Light 12h 33m
Length of Day
11h 34m
First Quarter, 61% of the Moon is Illuminated
Mar 9
First Quarter
Mar 16
Full
Mar 23
Last Quarter
Mar 30
New
Apr 7
First Quarter

Hourly Weather History & Observations

Time (CDT) Temp. Windchill Dew Point Humidity Pressure Visibility Wind Dir Wind Speed Gust Speed Precip Events Conditions
12:16 AM 21.2 °F 10.1 °F 17.6 °F 86% 30.00 in 10.0 mi SSE 10.4 mph - N/A   Clear
12:36 AM 21.2 °F 10.1 °F 17.6 °F 86% 29.99 in 10.0 mi SSE 10.4 mph - N/A   Clear
12:56 AM 19.4 °F 7.2 °F 15.8 °F 86% 29.98 in 10.0 mi SSE 11.5 mph - N/A   Clear
1:16 AM 21.2 °F 10.1 °F 17.6 °F 86% 29.96 in 10.0 mi SSE 10.4 mph - N/A   Clear
1:36 AM 19.4 °F 7.2 °F 15.8 °F 86% 29.95 in 10.0 mi SSE 11.5 mph - N/A   Clear
1:56 AM 19.4 °F 7.9 °F 15.8 °F 86% 29.94 in 10.0 mi SSE 10.4 mph - N/A   Clear
3:16 AM 21.2 °F 10.1 °F 17.6 °F 86% 29.93 in 10.0 mi SSE 10.4 mph - N/A   Clear
3:36 AM 21.2 °F 9.5 °F 17.6 °F 86% 29.91 in 10.0 mi SSE 11.5 mph - N/A   Clear
3:56 AM 21.2 °F 8.9 °F 17.6 °F 86% 29.89 in 10.0 mi SSE 12.7 mph - N/A   Clear
4:16 AM 21.2 °F 10.1 °F 17.6 °F 86% 29.88 in 10.0 mi SSE 10.4 mph - N/A   Clear
4:36 AM 21.2 °F 9.5 °F 17.6 °F 86% 29.87 in 10.0 mi SSE 11.5 mph - N/A   Clear
4:56 AM 23.0 °F 11.7 °F 17.6 °F 80% 29.86 in 10.0 mi SSE 11.5 mph - N/A   Clear
5:16 AM 23.0 °F 11.7 °F 19.4 °F 86% 29.84 in 10.0 mi SSE 11.5 mph - N/A   Clear
5:36 AM 24.8 °F 14.6 °F 19.4 °F 80% 29.83 in 10.0 mi SSE 10.4 mph - N/A   Clear
5:56 AM 24.8 °F 14.6 °F 19.4 °F 80% 29.82 in 10.0 mi SSE 10.4 mph - N/A   Clear
6:16 AM 24.8 °F 14.6 °F 19.4 °F 80% 29.80 in 10.0 mi SSE 10.4 mph - N/A   Clear
6:36 AM 24.8 °F 14.0 °F 21.2 °F 86% 29.79 in 10.0 mi SSE 11.5 mph - N/A   Clear
6:56 AM 26.6 °F 15.2 °F 21.2 °F 80% 29.78 in 10.0 mi SSE 13.8 mph - N/A   Clear
7:16 AM 26.6 °F 15.2 °F 21.2 °F 80% 29.77 in 10.0 mi South 13.8 mph - N/A   Clear
7:36 AM 26.6 °F 15.2 °F 23.0 °F 86% 29.75 in 10.0 mi South 13.8 mph - N/A   Clear
7:56 AM 28.4 °F 17.5 °F 24.8 °F 86% 29.74 in 10.0 mi South 13.8 mph - N/A   Clear
8:16 AM 30.2 °F 20.2 °F 24.8 °F 80% 29.74 in 10.0 mi South 12.7 mph - N/A   Clear
8:36 AM 30.2 °F 20.8 °F 26.6 °F 86% 29.73 in 10.0 mi South 11.5 mph - N/A   Clear
8:56 AM 33.8 °F 25.3 °F 26.6 °F 75% 29.71 in 10.0 mi South 11.5 mph - N/A   Clear
9:16 AM 33.8 °F 25.8 °F 28.4 °F 81% 29.70 in 10.0 mi South 10.4 mph - N/A   Clear
9:36 AM 35.6 °F 28.6 °F 28.4 °F 75% 29.70 in 10.0 mi SSW 9.2 mph 16.1 mph N/A   Clear
9:56 AM 37.4 °F 30.8 °F 30.2 °F 75% 29.70 in 10.0 mi SSW 9.2 mph - N/A   Clear
10:16 AM 39.2 °F 32.5 °F 30.2 °F 70% 29.70 in 10.0 mi SSW 10.4 mph - N/A   Clear
10:36 AM 39.2 °F 33.6 °F 30.2 °F 70% 29.69 in 10.0 mi SSW 8.1 mph - N/A   Clear
10:56 AM 41.0 °F 35.8 °F 32.0 °F 70% 29.68 in 10.0 mi SSW 8.1 mph - N/A   Clear
11:16 AM 42.8 °F 38.6 °F 33.8 °F 70% 29.68 in 10.0 mi SSW 6.9 mph - N/A   Clear
11:36 AM 44.6 °F 41.4 °F 33.8 °F 66% 29.68 in 10.0 mi SW 5.8 mph - N/A   Clear
11:56 AM 46.4 °F 42.9 °F 35.6 °F 66% 29.68 in 10.0 mi SW 6.9 mph - N/A   Clear
12:16 PM 48.2 °F - 35.6 °F 62% 29.68 in 10.0 mi WSW 9.2 mph - N/A   Clear
12:36 PM 50.0 °F - 35.6 °F 58% 29.67 in 10.0 mi West 8.1 mph - N/A   Clear
12:56 PM 51.8 °F - 35.6 °F 54% 29.66 in 10.0 mi West 12.7 mph - N/A   Clear
1:16 PM 51.8 °F - 37.4 °F 58% 29.66 in 10.0 mi West 11.5 mph 17.3 mph N/A   Clear
1:36 PM 51.8 °F - 37.4 °F 58% 29.66 in 10.0 mi West 10.4 mph - N/A   Clear
1:56 PM 51.8 °F - 37.4 °F 58% 29.66 in 10.0 mi West 11.5 mph - N/A   Clear
2:16 PM 51.8 °F - 37.4 °F 58% 29.65 in 10.0 mi West 11.5 mph - N/A   Clear
2:36 PM 51.8 °F - 37.4 °F 58% 29.65 in 10.0 mi West 10.4 mph - N/A   Clear
2:56 PM 51.8 °F - 37.4 °F 58% 29.65 in 10.0 mi West 10.4 mph - N/A   Clear
3:16 PM 51.8 °F - 39.2 °F 62% 29.64 in 10.0 mi West 8.1 mph - N/A   Clear
3:36 PM 53.6 °F - 37.4 °F 54% 29.63 in 10.0 mi West 9.2 mph - N/A   Clear
3:56 PM 51.8 °F - 37.4 °F 58% 29.64 in 10.0 mi West 9.2 mph - N/A   Clear
4:16 PM 51.8 °F - 39.2 °F 62% 29.64 in 10.0 mi West 8.1 mph - N/A   Clear
4:36 PM 50.0 °F - 39.2 °F 66% 29.65 in 10.0 mi West 5.8 mph - N/A   Clear
4:56 PM 50.0 °F - 39.2 °F 66% 29.66 in 10.0 mi West 4.6 mph - N/A   Clear
5:16 PM 48.2 °F - 39.2 °F 71% 29.66 in 10.0 mi West 6.9 mph - N/A   Clear
5:36 PM 48.2 °F - 37.4 °F 66% 29.66 in 10.0 mi West 9.2 mph - N/A   Clear
5:56 PM 46.4 °F 42.4 °F 39.2 °F 76% 29.66 in 10.0 mi WSW 8.1 mph - N/A   Clear
6:16 PM 44.6 °F 40.2 °F 37.4 °F 76% 29.65 in 10.0 mi West 8.1 mph - N/A   Clear
6:36 PM 44.6 °F 40.2 °F 37.4 °F 76% 29.66 in 10.0 mi WSW 8.1 mph - N/A   Clear
6:56 PM 42.8 °F 38.6 °F 35.6 °F 76% 29.67 in 10.0 mi WSW 6.9 mph - N/A   Clear
7:16 PM 42.8 °F 38.6 °F 35.6 °F 76% 29.66 in 10.0 mi SW 6.9 mph - N/A   Clear
7:36 PM 41.0 °F 35.8 °F 35.6 °F 81% 29.66 in 10.0 mi SW 8.1 mph - N/A   Clear
7:56 PM 41.0 °F 37.1 °F 33.8 °F 76% 29.65 in 10.0 mi SSW 5.8 mph - N/A   Clear
8:16 PM 41.0 °F 36.4 °F 33.8 °F 76% 29.65 in 10.0 mi SW 6.9 mph - N/A   Clear
8:36 PM 41.0 °F - 33.8 °F 76% 29.65 in 10.0 mi Calm Calm - N/A   Clear
8:56 PM 39.2 °F 37.0 °F 33.8 °F 81% 29.65 in 10.0 mi SSW 3.5 mph - N/A   Clear
9:16 PM 39.2 °F 35.9 °F 33.8 °F 81% 29.64 in 10.0 mi South 4.6 mph - N/A   Clear
9:36 PM 37.4 °F 32.1 °F 33.8 °F 87% 29.65 in 10.0 mi SSW 6.9 mph - N/A   Clear
9:56 PM 35.6 °F 29.9 °F 32.0 °F 87% 29.64 in 10.0 mi SSW 6.9 mph - N/A   Clear
10:16 PM 37.4 °F 32.8 °F 33.8 °F 87% 29.64 in 10.0 mi SSW 5.8 mph - N/A   Clear
10:36 PM 37.4 °F 31.4 °F 33.8 °F 87% 29.63 in 10.0 mi SSW 8.1 mph - N/A   Clear
10:56 PM 37.4 °F 31.4 °F 33.8 °F 87% 29.63 in 10.0 mi SSW 8.1 mph - N/A   Clear
11:16 PM 37.4 °F 32.8 °F 33.8 °F 87% 29.64 in 10.0 mi SSW 5.8 mph - N/A   Clear
11:36 PM 37.4 °F 32.1 °F 33.8 °F 87% 29.63 in 10.0 mi SSW 6.9 mph - N/A   Clear
11:56 PM 37.4 °F 32.1 °F 33.8 °F 87% 29.62 in 10.0 mi SSW 6.9 mph - N/A   Clear
12:16 AM 37.4 °F 31.4 °F 33.8 °F 87% 29.63 in 10.0 mi WSW 8.1 mph - N/A   Clear
12:36 AM 39.2 °F 34.2 °F 33.8 °F 81% 29.63 in 10.0 mi West 6.9 mph - N/A   Clear
12:56 AM 39.2 °F 33.6 °F 33.8 °F 81% 29.63 in 10.0 mi West 8.1 mph - N/A   Clear